Wind_Speed
15 14 16 17 17 18 18 19 20 20 19 18 18 17 17 17 17 18 17 17 17 18 19 20 22 23 23 22 21 21 19 18 18 17 17 18 17 16 15 14 14 13 13 13 13 13 12 12 11 11 10 10 9 8 8 8 8 8 8 8 9 8 8 7 5 5 5 4 4 3 3 4 4 5 5 5 4 4 4 3 3 3 4 4 4
14 14 15 17 18 18 18 19 19 19 18 18 18 17 17 17 17 18 18 17 18 18 19 21 22 23 23 22 21 20 19 17 17 16 17 17 17 16 14 14 14 14 13 13 12 12 12 11 11 10 9 9 9 8 8 8 8 8 7 7 7 7 7 6 5 5 4 3 3 3 4 4 4 4 4 4 4 4 4 3 3 3 3 4 4
17 16 16 16 17 18 18 19 19 19 18 17 17 17 17 17 17 18 18 18 18 18 19 21 22 23 23 22 21 20 18 17 16 16 16 17 16 15 14 14 14 13 13 12 12 12 11 11 10 10 9 9 9 8 8 8 7 7 7 6 6 6 6 5 5 4 3 3 2 3 3 4 4 4 4 4 4 4 4 3 3 2 3 3 3
19 17 17 17 17 18 18 18 19 18 18 18 18 18 17 17 17 18 18 18 18 18 19 21 22 22 23 22 21 20 18 17 15 15 16 16 15 14 14 13 13 13 12 12 12 11 11 10 10 10 9 9 9 8 8 7 6 6 5 5 5 5 4 3 4 4 3 3 3 3 4 4 4 4 4 5 5 4 4 3 3 2 2 3 3
19 16 16 18 17 17 17 18 18 18 18 18 18 18 17 18 18 18 18 18 18 18 19 21 22 22 22 22 21 19 18 17 15 14 15 15 14 13 13 13 12 12 12 12 11 11 11 10 10 10 10 10 9 8 8 7 6 5 4 4 4 3 3 2 3 3 3 3 3 4 4 4 4 5 5 5 5 4 4 3 3 3 2 3 3
19 17 16 17 17 17 17 18 18 18 18 18 18 18 17 18 18 18 18 18 18 18 19 21 22 21 22 22 20 19 18 17 15 14 14 14 14 13 13 12 12 12 12 11 11 11 10 10 10 10 10 10 9 8 8 7 5 4 3 3 3 2 2 1 2 2 2 3 4 4 5 5 5 5 6 6 5 5 4 4 3 3 3 2 2
19 18 17 17 17 17 18 18 18 19 19 18 18 18 17 17 17 18 18 17 17 18 19 20 21 21 21 21 20 19 18 16 14 14 14 14 14 13 13 12 12 12 11 11 11 11 11 11 11 11 10 9 8 7 7 6 5 4 3 3 3 3 1 0 1 2 2 3 4 4 5 5 5 6 6 6 6 5 4 4 4 3 3 3 2
19 18 16 17 17 18 18 18 18 19 19 19 18 18 17 17 17 18 17 17 17 18 19 21 21 21 21 21 20 19 18 16 14 13 13 14 14 14 13 13 12 11 10 10 11 11 11 11 11 10 10 9 7 7 7 6 4 4 4 3 3 3 2 0 1 2 3 3 3 4 4 4 5 6 6 6 6 5 5 4 4 3 3 3 2
20 19 18 17 18 18 19 19 19 19 19 19 18 17 17 17 17 17 17 17 18 19 20 21 22 21 21 21 20 20 18 15 13 14 14 14 14 14 13 13 12 11 10 10 11 11 11 11 11 10 9 8 7 6 7 7 6 5 5 4 4 3 2 1 1 3 3 3 3 3 3 3 4 5 5 5 5 5 5 5 4 4 4 3 3
21 21 20 19 19 20 20 20 20 19 18 18 17 17 17 17 17 17 17 17 18 19 21 22 23 22 22 21 21 20 17 14 13 14 14 14 14 14 13 13 12 11 11 11 11 11 11 11 10 9 7 7 6 5 7 7 7 7 5 4 3 3 2 1 1 3 4 3 2 2 2 3 4 4 4 4 5 5 4 5 5 5 4 4 3
20 21 21 21 21 20 20 20 19 18 17 17 17 17 17 17 17 18 17 17 18 20 22 23 24 23 22 22 21 20 17 13 13 14 14 14 14 14 13 13 12 12 12 11 11 11 11 11 10 8 5 6 5 4 6 7 7 6 6 5 3 2 1 1 2 3 3 2 2 3 3 4 4 4 4 4 4 4 4 5 5 5 5 4 4
19 20 20 20 20 20 20 19 18 17 17 17 17 17 17 18 18 18 18 18 19 21 22 24 24 24 23 22 21 20 16 13 13 14 14 14 14 14 13 13 13 13 13 12 12 11 12 11 9 7 4 3 4 4 5 6 7 6 5 5 4 2 1 1 2 2 2 1 4 5 5 4 4 4 4 3 4 4 5 5 5 5 5 5 4
18 18 19 19 20 20 19 18 17 16 16 16 17 17 18 18 18 18 18 18 19 21 23 25 25 25 24 23 22 19 16 13 12 14 14 14 14 14 13 13 13 13 13 12 12 12 12 11 9 6 3 1 1 3 4 5 8 7 4 4 3 2 1 1 1 2 3 2 5 6 5 4 4 4 4 4 4 4 5 5 5 5 5 5 5
17 16 17 19 20 19 18 17 16 16 16 17 17 17 18 18 18 18 19 20 21 23 25 26 26 26 25 24 22 20 16 13 12 14 14 14 14 14 13 13 13 13 13 12 12 12 12 11 9 6 4 2 1 0 3 5 7 7 4 3 4 2 1 1 1 1 3 2 4 5 5 4 4 4 4 4 4 5 5 5 5 5 5 5 5
16 17 18 18 18 18 17 16 16 16 17 17 18 18 18 18 18 19 20 21 23 25 27 27 27 27 26 25 23 20 17 13 12 14 14 14 15 14 13 13 14 13 13 12 12 12 12 11 9 7 4 3 3 2 1 3 5 6 4 3 4 4 3 3 2 0 1 1 3 4 4 4 4 4 3 4 4 5 5 6 5 6 6 6 6
15 17 18 18 18 17 16 16 16 16 17 17 18 18 18 18 18 19 21 23 25 27 28 28 28 28 27 26 24 21 17 13 12 14 14 15 15 15 13 13 14 13 13 12 13 13 12 12 9 7 5 4 3 2 0 1 3 5 3 3 4 5 5 5 3 2 1 1 2 3 3 3 3 3 4 4 5 5 6 6 6 6 6 6 6
16 17 18 19 19 17 16 15 16 16 17 17 18 18 18 19 19 20 23 25 27 28 28 28 28 28 27 26 24 21 18 14 13 15 15 15 16 15 13 13 13 13 13 13 13 13 12 12 10 8 5 5 3 2 1 2 1 5 5 4 5 5 6 6 5 3 2 2 2 3 3 3 3 4 5 5 6 6 6 6 6 6 7 7 7
18 18 18 19 19 17 17 16 16 16 16 17 18 18 18 19 20 22 25 26 27 27 27 27 28 28 27 26 24 21 18 15 14 15 16 16 16 15 14 14 14 13 13 13 13 13 12 12 10 8 6 5 4 2 2 3 2 5 7 6 4 5 5 5 4 3 2 2 2 3 3 3 4 5 5 6 7 7 7 7 7 7 7 7 7
19 20 20 19 18 18 17 17 16 16 16 17 18 19 20 22 23 24 26 27 27 27 26 27 27 27 27 26 24 21 19 16 15 16 16 16 16 15 14 14 14 13 13 13 13 13 12 12 10 7 6 5 4 2 1 3 3 5 7 6 4 3 4 4 2 2 2 2 2 3 3 4 5 5 6 6 6 7 7 7 7 8 8 8 7
21 21 20 19 18 18 17 16 16 16 17 18 20 22 24 25 24 25 27 27 28 27 26 26 26 26 26 25 24 22 19 17 16 16 17 17 16 16 15 14 14 13 14 13 13 13 12 11 9 7 6 5 4 3 2 3 4 6 7 6 4 3 3 2 1 1 1 2 2 3 4 5 5 6 6 6 6 7 7 8 8 9 9 9 8
22 21 20 19 19 18 18 17 17 17 19 21 24 26 26 25 24 24 26 27 28 28 28 27 26 26 25 24 23 21 19 18 17 17 17 17 17 16 15 14 14 14 14 14 13 13 12 11 9 7 6 6 5 4 4 4 4 6 7 5 4 2 2 2 2 2 2 2 2 3 4 5 6 6 7 7 7 7 7 8 9 9 10 9 9
22 21 20 19 19 19 18 18 19 21 23 25 26 27 26 24 22 22 23 25 27 28 28 28 28 26 24 24 23 20 19 18 18 17 18 18 17 17 15 14 14 14 14 14 13 13 12 10 8 7 6 6 5 4 4 5 4 6 7 4 3 2 2 2 2 2 2 2 2 3 5 5 6 7 8 8 8 8 8 9 10 10 10 9 9
22 22 21 21 21 20 20 21 22 23 25 27 28 28 25 22 20 21 23 24 24 25 26 27 27 26 25 25 22 19 19 18 18 18 18 18 18 17 16 15 14 14 14 13 13 13 11 9 8 7 7 6 5 5 5 4 3 4 5 5 4 3 2 2 2 3 2 3 3 4 5 6 7 8 9 9 9 9 9 9 10 11 10 10 10
24 23 23 22 22 22 22 22 24 25 27 28 29 27 23 20 20 21 23 24 23 23 22 22 22 23 25 25 22 20 18 18 18 18 19 18 18 17 16 15 15 14 13 13 13 12 11 9 8 8 7 6 6 5 6 3 2 2 5 5 6 4 2 3 4 5 5 6 7 7 8 8 8 9 10 10 10 10 10 10 11 11 11 11 10
26 26 25 23 23 22 23 24 25 27 29 29 27 25 22 20 21 22 23 24 22 20 18 16 18 21 23 24 22 20 18 18 19 19 19 18 17 16 15 15 15 14 14 13 13 11 10 9 8 8 8 7 6 6 6 4 1 3 5 6 7 7 6 6 6 7 8 10 10 11 11 10 10 10 11 11 11 11 11 11 12 12 12 12 11
26 26 25 23 22 23 24 25 27 29 29 28 26 24 22 20 21 22 23 23 20 17 15 14 15 18 20 22 21 19 18 18 19 19 19 18 16 16 14 13 15 15 14 13 12 11 10 9 9 9 9 8 6 6 7 6 3 2 3 4 5 6 6 7 7 7 8 9 10 11 11 11 12 12 12 12 12 11 11 12 12 12 12 12 11
27 26 24 24 24 24 25 26 28 29 28 27 24 23 21 21 20 21 22 21 17 14 14 14 14 14 16 17 18 17 18 18 19 20 19 17 16 16 15 15 15 15 14 13 12 11 10 9 9 9 10 8 6 7 8 7 3 2 3 3 3 4 4 5 5 5 6 7 8 9 10 11 12 13 13 12 12 12 12 12 12 12 12 12 12
25 25 25 25 25 24 25 27 28 27 25 23 22 21 20 20 18 19 20 18 16 14 14 14 15 15 14 15 15 15 16 18 19 19 19 17 16 17 17 15 15 14 14 13 12 11 10 9 10 10 10 7 5 8 9 7 4 2 2 2 3 3 4 4 4 5 7 8 9 9 10 11 12 13 13 13 13 12 12 12 12 12 12 12 12
24 24 26 26 26 26 27 27 27 25 23 22 21 19 19 18 17 18 18 17 15 15 15 15 16 17 16 15 15 15 15 16 18 18 18 16 15 16 16 14 14 14 13 13 12 11 11 10 10 10 9 6 6 8 9 7 4 1 1 2 3 3 3 4 4 5 7 8 9 10 11 12 12 13 13 13 13 13 12 12 11 12 12 12 12
22 24 25 26 28 28 26 25 26 25 24 23 22 20 18 16 16 17 18 17 17 16 16 17 17 17 16 16 15 15 15 16 16 17 16 14 14 15 15 14 14 14 13 13 12 12 11 10 9 10 8 6 7 8 8 6 3 2 3 3 3 3 4 5 5 6 7 8 9 11 12 11 11 11 12 12 12 12 13 12 11 12 12 12 12
24 26 27 28 28 25 25 25 26 26 24 22 20 18 17 15 15 17 19 19 18 17 17 17 17 16 15 14 13 13 14 15 15 16 14 14 15 16 16 16 15 14 13 12 12 13 11 9 10 11 8 7 8 8 7 5 3 3 4 4 4 4 5 5 6 6 7 9 10 11 10 9 9 10 9 9 10 11 12 11 11 12 12 12 12
30 28 29 29 27 25 25 26 27 26 26 24 20 18 18 17 18 18 19 20 18 17 16 16 16 14 13 12 12 13 14 14 15 14 12 13 15 16 16 17 17 13 12 12 12 14 11 9 11 10 7 7 8 8 7 5 4 4 5 6 5 4 4 5 6 6 7 9 10 9 7 7 8 8 7 6 8 10 10 11 11 11 12 12 12
29 25 24 24 25 26 26 26 26 25 25 25 22 20 19 20 20 19 20 20 18 16 15 16 15 13 12 12 14 14 14 15 15 14 13 13 14 16 16 17 18 15 12 12 13 15 13 10 11 11 9 8 8 7 7 6 5 4 5 6 4 4 5 5 5 6 7 9 9 7 6 6 6 6 5 4 5 7 8 9 9 10 12 12 12
25 24 23 21 21 24 24 24 24 24 24 24 23 21 21 21 20 19 19 19 18 17 16 16 16 14 12 13 14 13 14 14 14 13 13 14 15 14 14 14 16 16 15 15 14 15 14 12 12 12 11 11 9 8 7 7 6 5 6 5 4 4 5 5 5 5 7 8 6 5 5 5 6 6 5 4 3 5 7 8 8 9 10 11 11
23 23 20 19 20 22 22 20 20 23 24 24 23 22 22 22 21 20 20 19 17 17 17 16 16 15 13 14 14 13 14 13 11 11 12 14 14 13 12 13 15 15 16 17 16 14 13 12 12 12 12 11 9 8 7 6 6 6 6 4 4 4 5 5 4 5 6 6 4 4 4 4 5 5 4 4 3 4 6 7 7 8 9 9 9
25 23 21 19 19 20 22 21 21 22 23 23 22 21 21 21 20 20 20 19 18 17 16 16 16 16 14 14 14 14 14 12 9 10 12 13 13 13 13 13 14 14 15 16 16 15 12 10 11 11 11 10 8 6 5 5 6 6 6 5 4 5 4 4 4 4 5 5 3 3 3 4 4 4 4 4 3 3 5 7 7 8 8 8 7
24 24 23 22 19 19 23 25 23 21 21 20 20 21 20 18 18 19 19 18 17 16 14 15 16 16 15 14 14 14 14 11 10 11 13 12 12 14 14 14 13 14 16 15 15 16 14 11 10 10 9 8 6 5 4 5 5 6 6 5 5 5 4 5 4 3 3 3 3 2 2 3 3 3 6 5 3 3 5 6 7 8 8 8 7
22 22 26 27 22 21 24 28 24 22 23 23 22 21 18 16 18 19 19 19 17 15 14 14 14 15 15 14 13 13 13 11 10 11 12 13 13 13 15 16 14 14 16 14 13 14 14 11 10 9 9 7 6 4 4 5 5 6 6 5 5 5 4 5 4 3 2 2 3 2 2 3 2 4 6 3 2 1 5 6 7 8 8 8 8
24 25 29 28 26 24 26 27 24 21 23 23 21 19 18 18 19 19 19 19 17 15 15 14 13 13 14 13 12 12 11 10 10 11 12 12 13 14 15 15 13 13 15 15 14 14 13 11 9 9 9 7 6 5 5 6 6 7 6 6 5 5 5 4 4 3 2 3 3 2 1 2 2 3 4 3 3 1 4 6 8 9 9 9 7
28 28 27 26 25 22 21 22 22 22 23 22 18 17 19 20 20 19 19 19 17 17 16 14 12 12 13 11 10 10 10 9 10 11 11 12 13 16 15 13 12 13 15 16 16 15 12 10 10 10 9 8 7 6 5 6 7 7 7 6 5 5 4 4 4 4 2 2 2 1 1 1 1 2 3 3 3 2 3 5 7 9 9 8 7
27 27 25 26 24 14 13 17 18 20 23 23 20 18 20 20 20 19 17 17 19 18 17 14 12 12 11 10 10 10 9 9 10 10 11 12 14 17 16 13 12 14 16 16 16 15 12 10 11 11 10 9 8 6 6 6 7 7 7 6 5 5 4 4 4 4 2 2 2 1 1 2 1 1 2 2 3 4 4 4 6 7 8 7 6
27 26 26 28 28 21 20 20 20 25 29 27 20 18 21 19 17 17 15 15 18 18 15 13 12 11 10 10 9 9 9 10 11 11 11 12 14 16 16 14 13 15 16 16 15 14 12 11 11 11 10 9 8 7 6 7 8 7 7 7 6 5 5 5 5 4 3 3 3 4 3 2 1 2 2 3 4 4 5 6 6 6 6 6 7
27 28 26 26 28 27 25 23 20 21 25 24 19 19 21 18 17 17 14 14 16 15 13 12 12 11 9 10 10 10 11 11 11 11 11 12 13 15 14 13 13 15 15 15 15 14 12 12 12 11 10 10 9 8 7 8 8 7 7 7 6 6 6 6 6 5 4 3 4 4 3 2 2 3 4 2 3 4 5 6 6 6 6 6 7
28 29 28 26 25 23 22 22 20 17 12 10 17 22 21 17 16 17 14 12 12 12 12 12 12 10 9 10 11 11 11 11 11 11 12 12 13 13 13 13 14 15 16 15 15 14 13 12 12 12 11 10 10 9 9 9 8 8 8 8 8 8 8 7 7 6 5 4 5 5 4 4 3 4 4 3 3 4 4 4 5 6 6 6 6
29 29 28 27 25 25 21 20 25 28 20 13 10 14 16 16 17 17 15 12 12 12 13 12 11 9 9 10 10 10 11 11 11 11 12 12 12 13 13 14 15 15 16 15 14 14 13 13 13 13 12 12 11 10 10 10 9 9 9 9 9 10 9 8 7 6 6 5 6 6 6 5 4 5 5 4 4 5 5 5 5 6 6 6 6
27 28 28 28 26 25 23 22 27 31 27 22 15 10 7 7 12 14 13 13 13 14 14 12 10 9 9 10 9 10 11 12 13 13 13 12 12 13 13 14 15 16 16 16 15 15 15 15 14 14 13 13 12 12 11 11 10 10 10 10 10 10 9 8 7 7 7 6 6 7 7 7 6 6 6 5 5 6 6 6 6 6 6 6 6
26 27 28 28 25 22 22 25 29 28 25 24 20 14 9 4 4 6 8 12 14 13 12 10 9 9 10 10 9 10 12 13 14 14 13 12 13 13 13 15 16 16 16 17 17 17 16 16 15 14 14 14 13 13 12 11 11 10 11 10 10 10 9 8 7 7 7 6 6 7 7 8 7 7 7 6 6 7 7 7 7 7 7 7 7
26 27 27 26 24 21 19 21 26 25 21 21 20 17 13 10 7 5 5 9 11 11 10 10 10 9 10 11 10 11 13 15 16 15 15 14 13 13 14 15 16 17 18 18 18 18 17 16 16 15 15 15 14 14 12 11 11 10 11 11 11 10 9 8 7 7 7 7 6 7 7 8 8 8 8 8 8 8 8 8 7 7 7 7 8
25 25 26 25 23 21 18 17 19 22 21 20 19 16 13 11 11 10 9 9 11 11 11 11 11 11 12 12 12 13 15 16 17 17 16 15 14 14 15 17 17 18 19 19 19 19 18 17 16 15 15 15 15 14 12 11 11 11 11 11 11 10 9 8 8 8 8 7 7 7 8 8 8 8 8 9 10 10 9 8 7 7 8 8 8
22 23 25 26 25 22 19 17 16 18 19 19 18 16 13 10 10 11 11 13 14 13 12 11 12 12 13 13 13 14 15 16 17 18 17 15 14 15 17 18 18 19 19 19 19 19 18 17 16 16 16 16 15 13 12 12 12 11 12 12 11 10 9 9 8 8 8 8 8 8 8 8 8 8 9 10 11 11 10 9 9 9 9 9 8
20 23 26 26 25 23 21 20 17 17 18 19 18 17 15 12 12 11 10 12 15 15 13 12 13 14 14 14 14 15 15 16 16 17 17 15 15 16 18 18 18 18 19 19 19 19 19 18 17 17 17 16 15 13 12 12 12 12 12 11 10 9 9 9 9 9 9 9 9 9 9 9 9 9 10 12 12 12 10 10 11 10 9 8 8
Wind_Direction
283 284 283 282 280 278 276 275 275 275 275 276 278 279 282 286 290 293 297 303 311 318 322 326 329 329 329 329 330 329 329 328 329 331 335 335 334 334 333 334 335 339 342 344 344 344 344 344 343 339 336 332 329 328 329 333 335 336 337 340 334 329 325 317 311 298 283 275 260 238 215 197 170 158 157 142 128 124 125 126 114 100 91 85 76
284 283 283 283 282 280 277 274 273 273 273 275 277 278 280 284 287 291 295 302 311 318 322 326 328 329 328 329 330 330 330 329 331 335 338 337 336 335 335 337 339 342 343 345 344 345 346 345 343 339 335 331 330 330 334 339 340 341 343 344 337 333 330 319 309 293 275 271 250 225 215 205 180 163 151 135 133 136 139 137 122 108 100 93 80
288 287 286 284 283 281 279 277 275 274 273 273 275 277 279 281 285 289 294 302 311 317 321 326 328 329 328 329 330 331 331 331 334 338 340 338 336 336 337 339 341 343 344 345 346 347 348 346 341 337 334 333 333 335 337 340 344 348 348 346 344 342 333 315 304 291 280 279 258 234 219 213 197 174 158 151 152 153 152 145 129 113 102 92 81
286 288 287 283 281 279 278 277 276 274 272 271 273 275 277 279 283 287 294 304 312 317 321 325 328 328 327 327 330 330 330 332 336 340 340 338 336 335 337 341 343 344 345 347 349 349 347 343 338 335 336 336 336 337 337 341 349 354 356 357 357 351 333 306 287 270 262 256 241 229 218 214 207 186 171 169 170 167 161 151 137 121 102 85 74
282 285 282 278 276 275 274 273 273 271 270 269 270 272 275 278 281 287 296 306 311 315 320 324 326 325 325 325 328 329 328 332 337 339 339 337 334 335 337 342 345 347 348 350 350 347 343 339 337 338 339 339 339 340 341 346 352 356 3 13 15 3 338 301 273 258 247 231 218 216 210 206 205 194 183 178 177 173 162 157 148 135 113 87 72
280 281 277 273 272 271 270 269 269 268 268 267 267 269 272 276 281 289 299 306 310 314 318 321 322 322 322 322 326 327 325 330 335 336 337 335 333 334 338 343 348 350 351 351 347 342 340 340 340 342 342 340 341 345 350 355 358 2 15 29 33 25 354 298 259 244 229 215 205 203 198 195 200 198 189 182 180 175 167 169 164 149 134 111 96
276 278 275 271 271 269 267 267 267 267 266 265 266 268 271 276 283 291 300 304 307 310 314 317 318 319 319 321 323 323 322 326 330 332 333 332 331 333 337 343 348 351 352 348 342 339 341 344 346 345 343 342 345 353 360 5 13 19 29 41 46 45 33 309 229 221 214 208 202 201 195 188 197 201 193 188 185 180 178 183 179 165 149 135 127
276 277 275 271 271 269 267 266 265 265 265 266 266 268 272 277 284 292 297 300 302 306 310 313 314 316 317 319 320 319 318 323 326 327 329 330 330 332 337 342 347 350 349 343 338 339 344 348 349 348 346 347 352 3 13 22 33 36 38 41 46 50 49 83 188 200 207 207 201 204 198 190 198 203 202 197 192 189 190 193 188 179 166 158 151
278 278 278 275 274 272 269 267 265 265 265 266 268 270 275 280 285 290 292 295 298 303 307 310 312 313 314 316 316 315 315 319 322 324 326 328 329 332 336 340 344 346 345 339 337 340 345 349 350 350 350 353 359 17 33 41 42 40 39 37 37 41 39 30 204 191 193 204 203 209 212 205 205 205 208 204 198 197 199 199 195 192 184 178 177
281 282 281 278 276 274 271 269 267 265 265 267 269 273 278 281 283 285 287 291 296 302 306 308 310 310 311 312 312 312 313 316 319 321 323 326 328 331 335 337 339 340 340 337 336 340 345 349 351 352 353 359 10 42 53 53 48 41 38 36 37 37 33 6 253 204 181 185 198 210 227 225 213 207 209 207 204 202 205 207 205 201 195 193 195
283 283 281 278 276 274 272 269 264 261 263 266 270 274 278 280 281 282 285 290 297 301 304 306 306 306 307 308 308 309 310 312 315 317 320 323 325 328 331 333 334 335 335 333 334 337 344 347 349 352 354 7 28 60 64 57 45 38 36 33 33 32 13 303 256 216 175 164 224 225 227 224 212 206 207 209 209 207 210 215 214 209 204 202 207
284 282 278 274 273 271 269 265 260 259 260 265 271 275 276 278 279 283 287 291 296 299 301 302 302 302 303 303 304 306 307 307 310 312 315 319 322 325 327 328 329 330 329 329 330 333 341 345 346 349 350 15 42 60 62 46 28 27 34 32 27 20 347 293 266 217 159 192 245 238 230 222 212 207 207 213 215 215 218 221 219 217 214 213 216
288 283 276 273 272 270 267 263 259 258 261 266 270 273 274 276 279 284 289 292 295 296 298 298 299 299 299 300 301 303 304 303 306 309 311 315 318 320 320 324 325 325 325 325 326 330 337 341 342 344 341 343 55 61 48 27 20 24 42 52 47 37 357 282 270 200 154 196 235 239 232 223 218 213 210 213 215 218 223 227 227 223 222 222 225
286 279 275 275 274 271 267 264 261 261 264 266 268 271 272 276 280 285 289 292 293 295 295 296 296 295 296 296 297 299 300 300 301 304 307 311 313 312 314 320 322 320 320 320 322 326 331 335 337 340 337 304 252 116 35 18 18 25 44 73 71 72 69 65 327 208 159 187 230 236 232 226 226 221 215 214 215 218 222 229 232 230 228 227 229
280 274 274 273 271 270 269 266 263 263 264 265 267 269 273 277 280 284 287 289 292 293 294 294 293 293 293 294 294 296 297 296 297 299 303 307 307 306 311 317 317 315 315 315 318 322 324 329 335 337 331 309 273 239 17 18 13 18 34 59 59 60 51 52 43 333 157 203 236 238 236 236 238 235 230 227 226 225 225 228 231 233 234 233 233
279 274 273 271 270 270 269 267 265 264 263 264 266 268 271 273 277 281 284 286 288 290 291 291 291 291 291 291 292 293 294 292 291 295 299 302 301 302 310 314 312 310 309 310 313 317 320 325 333 334 324 309 294 257 155 56 3 0 2 18 31 41 46 41 34 11 340 264 250 249 248 251 251 247 243 239 236 233 231 231 233 234 236 236 236
276 273 272 272 271 270 267 265 264 262 261 261 262 264 267 270 275 279 280 281 283 285 287 288 288 289 289 290 290 290 290 287 286 290 294 297 297 299 307 310 307 305 304 305 308 312 316 321 328 328 319 311 303 282 157 147 327 345 344 348 10 26 40 35 23 13 345 298 278 268 265 265 261 256 251 246 241 239 236 236 237 238 238 238 237
274 272 274 271 266 264 263 262 260 259 259 259 261 264 268 270 273 275 276 277 279 281 283 285 286 287 288 288 287 287 286 284 282 285 290 293 294 297 304 304 302 301 299 300 304 309 312 316 322 322 316 315 311 295 163 168 268 340 353 352 1 11 15 21 19 6 348 323 303 289 279 270 262 258 255 252 249 247 244 243 243 242 241 241 240
274 272 273 268 262 262 264 262 260 262 262 261 262 264 265 266 270 272 273 274 275 276 278 281 283 285 286 286 285 283 283 282 278 281 286 290 291 295 299 300 298 296 294 295 299 305 307 309 315 316 312 313 312 299 199 194 271 327 349 351 358 1 351 355 13 1 348 324 302 290 280 269 260 255 254 256 258 257 255 252 250 247 244 240 238
272 271 270 266 264 266 268 266 265 265 263 261 260 260 261 264 271 274 274 274 274 273 273 276 279 281 283 283 282 280 282 279 274 278 283 286 289 291 293 296 294 290 288 290 296 300 301 303 308 311 307 305 305 297 258 250 289 316 327 336 351 3 341 322 287 310 312 290 283 280 275 271 269 267 266 265 262 261 258 254 250 246 243 238 235
269 268 266 264 265 267 268 265 262 260 257 256 257 258 261 266 272 274 274 275 274 272 271 272 272 275 278 279 278 278 279 276 274 277 282 285 287 288 290 292 288 283 284 288 292 294 294 297 304 306 297 296 298 292 283 289 310 316 315 324 336 349 327 294 275 281 281 272 275 273 273 275 277 277 276 270 264 259 255 252 248 245 242 240 237
266 264 261 260 261 262 261 256 254 254 254 255 256 258 261 267 272 272 272 272 272 271 272 272 269 269 271 272 273 276 276 273 273 277 281 284 286 286 286 287 283 279 280 284 287 288 289 293 300 299 287 288 291 293 296 303 330 322 312 312 311 318 324 302 296 303 301 302 302 289 283 280 277 276 273 269 264 259 255 253 251 248 244 241 239
260 257 253 254 257 257 252 249 249 251 253 255 256 258 263 269 272 272 272 271 270 270 270 271 269 265 264 266 270 271 271 270 272 276 280 283 285 284 284 283 280 277 277 280 283 284 287 291 295 288 280 280 283 293 298 307 357 328 305 310 313 319 357 4 356 336 306 293 304 306 299 292 285 279 272 266 262 257 254 253 252 250 246 242 238
252 248 245 249 253 251 247 246 249 251 252 254 257 262 269 273 273 272 270 270 269 269 270 268 263 261 260 263 267 266 266 267 270 274 279 282 281 282 285 283 278 276 276 277 279 281 284 288 287 279 272 271 277 291 294 303 5 297 283 302 309 298 306 340 341 324 302 289 293 300 298 295 295 289 278 269 260 254 252 251 251 250 248 243 238
245 242 241 247 251 247 244 245 248 250 253 257 263 270 275 275 271 268 267 269 269 268 270 261 254 258 261 265 265 262 263 264 268 273 277 278 277 280 285 281 274 272 273 274 276 277 280 281 277 269 263 262 273 288 288 288 287 251 266 286 295 290 295 313 316 307 297 291 292 296 294 288 289 292 287 276 265 256 252 249 249 250 249 246 241
243 240 243 249 250 245 243 246 250 254 258 264 271 274 275 273 268 266 266 268 269 265 262 255 252 257 261 265 265 262 262 263 267 273 274 274 275 276 277 273 268 269 271 272 272 272 272 270 266 261 255 255 270 281 279 276 259 201 244 272 297 300 306 318 314 303 298 296 294 295 294 284 280 284 287 282 273 263 254 250 248 249 249 248 245
239 239 246 250 246 242 245 250 256 261 265 270 272 273 272 270 267 265 264 264 261 254 252 251 250 253 257 261 261 261 263 264 268 270 270 271 273 272 268 264 264 266 266 267 266 263 261 258 257 255 251 253 267 273 273 271 247 163 195 245 303 318 330 333 315 299 299 301 296 292 290 283 278 278 281 280 274 268 260 253 249 249 249 249 247
237 239 246 248 243 243 248 255 261 266 268 270 271 271 269 268 265 261 259 255 247 243 249 250 246 248 255 259 254 253 258 261 264 265 266 270 273 270 261 256 258 260 262 262 257 254 252 249 250 250 250 253 263 270 271 267 248 179 181 240 288 311 332 331 310 287 288 295 295 292 290 287 283 280 278 275 270 265 260 254 250 248 246 246 246
234 239 245 245 244 246 251 258 263 265 267 271 273 271 268 265 263 257 251 247 245 246 249 250 248 247 251 257 254 249 251 256 258 260 266 270 272 267 256 251 254 255 257 255 251 250 247 244 245 247 248 249 256 266 268 267 270 280 290 293 298 310 313 307 296 284 289 299 301 300 298 295 293 287 280 273 266 259 254 249 245 243 242 241 242
232 240 245 245 246 248 253 258 261 262 267 273 272 269 266 263 257 252 248 248 251 252 253 253 252 250 253 258 255 247 247 253 257 261 267 268 267 263 257 253 251 249 251 249 248 247 244 242 243 244 242 239 246 255 258 267 291 293 303 315 306 301 296 295 298 299 307 310 308 305 301 299 299 295 286 274 262 252 247 244 238 235 235 235 236
240 242 243 241 244 251 255 258 261 264 268 273 271 263 259 256 251 249 250 253 255 254 256 254 251 254 259 256 245 239 243 251 257 262 265 265 264 261 258 252 243 241 244 245 247 245 241 239 241 239 233 233 238 242 245 262 292 285 293 305 293 284 283 289 299 312 317 312 309 307 302 301 304 304 294 275 257 246 242 240 236 230 228 228 231
250 245 240 237 239 247 253 257 260 263 265 266 265 259 254 253 250 247 249 252 255 256 257 253 248 252 255 245 234 233 239 248 254 257 258 258 260 259 257 247 233 234 241 240 245 244 235 229 234 229 219 230 236 238 243 255 280 283 283 286 284 282 285 294 307 318 319 313 312 312 307 308 311 310 306 283 253 242 239 237 233 228 224 221 224
251 247 242 241 243 245 249 254 257 260 261 261 260 255 250 251 250 247 247 251 255 257 258 252 242 242 245 235 229 230 235 247 253 254 253 254 259 259 255 241 228 232 240 237 243 243 231 220 227 224 217 230 232 233 246 254 262 264 268 277 282 286 290 302 318 322 319 318 319 322 323 324 321 314 314 302 257 240 235 230 227 225 222 218 216
248 248 245 244 250 255 254 251 254 257 259 259 255 249 244 247 248 244 244 250 256 256 255 249 234 231 236 229 226 230 237 248 253 253 250 255 262 254 244 235 230 236 239 237 244 246 237 226 227 228 226 231 228 226 238 248 257 260 264 273 277 284 294 312 330 327 321 324 325 330 336 337 332 320 317 313 277 244 231 221 218 218 217 216 213
262 262 259 253 257 267 265 255 255 257 257 256 249 242 240 241 242 241 244 249 255 257 252 242 229 226 229 225 227 234 241 247 250 247 246 256 259 241 231 232 231 235 237 237 240 242 242 232 226 229 228 226 219 215 225 238 256 267 272 276 273 282 299 316 332 331 326 328 325 326 335 338 332 330 333 323 290 246 224 213 208 206 205 208 210
271 272 272 265 260 266 267 262 259 261 262 258 249 243 241 241 242 243 247 252 257 258 249 236 223 221 225 225 228 236 242 244 241 241 245 254 248 227 224 226 228 235 234 236 238 236 235 229 226 229 224 216 204 201 221 238 255 268 279 283 275 283 293 303 315 327 333 333 325 322 332 341 337 346 356 339 301 241 215 207 200 195 192 193 198
266 269 275 275 272 269 267 267 267 267 268 262 254 253 250 245 248 250 255 260 261 257 244 231 223 222 226 227 230 238 241 239 237 243 245 245 237 226 220 220 230 238 232 236 241 234 230 227 230 231 221 214 209 209 232 252 261 268 279 279 269 272 273 282 299 327 348 342 336 332 340 354 5 358 349 340 315 231 202 200 194 188 186 185 188
257 269 284 285 287 285 274 271 271 269 267 263 260 260 254 246 250 255 262 265 256 245 233 229 231 229 227 227 231 236 236 232 234 242 243 239 235 225 217 220 233 235 228 234 235 230 229 226 227 228 222 220 223 231 253 269 272 265 271 273 264 259 258 274 296 326 351 342 338 341 345 357 14 0 355 1 7 185 184 192 189 184 186 186 187
246 270 289 291 294 287 273 269 271 272 268 265 264 261 251 247 253 255 259 259 244 229 226 231 237 230 222 220 226 231 229 228 234 240 242 239 230 219 216 226 236 233 229 232 229 227 229 223 220 224 226 230 235 246 263 272 272 264 265 265 256 253 254 270 297 316 333 343 338 343 9 5 1 4 13 30 30 81 167 184 188 185 188 189 191
247 272 284 286 283 267 262 272 274 274 269 264 264 258 247 245 251 252 255 252 230 218 225 233 235 227 219 214 215 223 224 225 232 238 240 238 224 212 216 230 236 230 231 234 230 227 227 220 217 221 225 233 241 253 269 272 272 268 266 266 260 259 263 277 297 305 312 334 337 22 72 23 350 1 21 35 46 83 134 168 181 186 191 195 200
257 270 271 277 283 272 277 287 281 277 269 262 258 246 239 242 243 246 253 242 218 215 226 231 231 227 218 211 212 219 223 226 231 238 243 237 222 213 220 233 234 226 228 233 230 225 223 218 218 222 223 232 244 255 267 271 274 274 268 268 269 270 275 283 293 293 289 297 274 230 290 317 320 2 46 69 90 107 119 140 161 175 188 198 202
263 268 267 274 284 287 285 286 293 287 269 258 255 240 235 239 238 240 247 232 214 215 224 226 227 224 215 211 216 222 226 230 233 239 240 228 219 220 226 232 231 227 227 229 227 223 220 215 218 225 229 236 244 253 262 266 271 274 269 265 264 266 271 276 277 273 267 268 249 247 271 275 215 125 113 93 98 117 127 135 145 159 175 185 185
264 266 266 269 276 277 277 283 293 285 266 251 243 238 236 237 237 237 239 225 213 214 219 221 222 220 215 215 218 224 228 230 231 232 225 217 221 225 224 225 227 228 228 224 222 222 221 218 220 226 232 239 244 249 254 258 262 264 260 256 249 249 255 259 258 255 253 252 247 247 228 197 168 148 150 129 115 128 137 143 148 157 167 171 173
263 262 261 267 273 274 281 287 268 255 273 264 237 237 238 238 237 232 229 223 213 211 214 216 217 218 219 216 214 219 226 228 226 221 213 212 219 216 214 220 223 226 229 224 218 220 224 224 226 228 231 237 242 246 248 251 253 252 248 243 234 234 242 246 246 247 250 246 241 237 210 203 208 180 170 165 165 167 169 172 168 168 172 174 179
258 256 259 267 272 271 278 287 270 265 289 309 273 252 243 236 232 228 225 223 219 217 214 212 215 220 222 215 210 214 221 223 216 207 200 201 208 209 212 220 223 225 227 225 220 221 224 226 228 228 229 234 237 241 244 247 248 245 241 237 231 232 237 241 243 245 247 240 230 229 229 231 218 188 183 184 187 191 198 199 190 184 186 189 192
252 251 260 269 273 274 272 275 280 286 300 308 304 293 271 233 225 228 224 220 223 222 216 215 218 224 226 220 217 220 219 212 203 196 192 196 207 214 217 222 225 225 225 225 223 223 223 225 227 228 230 233 235 237 239 243 244 243 241 240 237 239 239 240 244 247 249 242 226 221 230 235 216 197 200 202 200 206 207 202 197 197 197 198 200
252 252 260 269 273 278 276 270 275 285 298 303 296 285 287 286 232 226 221 220 223 222 222 227 228 227 228 226 224 224 217 207 200 200 203 209 216 219 221 225 226 224 224 226 226 225 224 225 227 229 232 235 235 235 236 239 241 242 244 246 244 244 245 243 244 249 251 247 233 222 221 222 215 206 210 212 210 210 207 202 201 201 202 205 207
256 259 262 268 274 279 282 278 275 276 280 287 286 277 272 277 271 257 234 219 214 216 229 241 243 239 236 232 224 217 215 210 208 211 215 218 218 218 222 225 225 224 225 225 226 226 226 226 228 230 233 234 234 233 232 235 238 239 244 247 246 246 248 249 248 250 248 244 238 229 221 217 214 212 212 213 212 210 207 205 203 203 208 214 215
261 267 269 272 278 281 281 279 278 277 274 274 279 279 271 268 267 260 251 234 218 220 235 246 254 252 240 231 220 215 214 212 212 213 215 217 217 220 223 224 225 225 224 224 225 226 226 228 230 231 231 232 232 232 231 234 236 238 240 243 245 246 248 250 253 252 247 243 237 233 229 220 215 216 215 210 210 210 207 206 208 211 218 224 225
267 270 273 273 275 278 277 274 270 269 268 265 268 275 274 263 252 247 244 238 230 227 233 241 249 247 233 221 215 215 214 210 209 210 215 219 221 222 225 225 226 227 227 227 227 227 228 229 230 230 228 228 230 231 231 235 238 239 239 240 241 241 243 248 254 255 253 250 242 236 231 219 212 214 214 211 212 211 206 206 212 217 223 229 231
269 268 271 270 271 274 271 268 264 259 257 257 258 264 270 263 253 256 250 237 228 224 226 230 232 231 225 219 217 216 216 213 210 213 219 223 224 226 229 229 229 230 232 232 231 231 231 231 229 227 226 226 227 229 231 235 238 239 240 239 239 238 239 244 250 256 257 252 244 236 228 219 214 213 213 214 214 213 209 211 217 221 224 230 233
Height
5877 5876 5875 5875 5875 5874 5874 5874 5873 5873 5873 5873 5873 5873 5873 5873 5872 5872 5872 5872 5871 5870 5870 5869 5868 5867 5866 5865 5864 5864 5863 5862 5861 5860 5860 5859 5858 5857 5856 5855 5854 5854 5853 5852 5851 5851 5849 5848 5848 5846 5846 5845 5844 5843 5842 5842 5841 5840 5840 5839 5839 5838 5837 5836 5836 5836 5835 5834 5834 5834 5834 5834 5834 5835 5834 5834 5833 5833 5834 5834 5833 5833 5833 5832 5832
5876 5875 5875 5874 5874 5873 5873 5873 5873 5872 5872 5872 5872 5872 5872 5872 5871 5871 5871 5871 5871 5870 5869 5869 5867 5866 5865 5865 5864 5863 5862 5862 5861 5860 5859 5858 5857 5856 5855 5855 5854 5853 5853 5852 5851 5850 5849 5848 5847 5846 5845 5844 5844 5843 5842 5842 5841 5840 5840 5839 5839 5838 5837 5836 5835 5835 5835 5834 5834 5834 5834 5834 5834 5834 5833 5833 5833 5833 5833 5833 5833 5833 5833 5832 5832
5874 5874 5874 5873 5873 5872 5872 5872 5871 5871 5871 5871 5870 5871 5871 5871 5871 5870 5870 5870 5870 5870 5869 5868 5867 5866 5865 5864 5863 5863 5862 5861 5860 5859 5859 5858 5857 5856 5855 5854 5853 5853 5852 5851 5850 5850 5849 5848 5847 5846 5845 5844 5843 5843 5842 5841 5840 5840 5839 5839 5839 5838 5838 5837 5836 5835 5835 5834 5834 5834 5834 5834 5833 5833 5832 5832 5832 5833 5833 5833 5833 5833 5833 5832 5832
5873 5873 5872 5872 5872 5871 5871 5870 5870 5870 5869 5869 5869 5870 5870 5870 5870 5870 5870 5870 5869 5869 5868 5867 5866 5865 5864 5863 5862 5862 5861 5860 5860 5859 5858 5857 5856 5855 5854 5853 5853 5852 5852 5851 5850 5849 5848 5847 5846 5845 5844 5844 5843 5843 5842 5841 5840 5840 5839 5839 5839 5838 5838 5837 5836 5836 5835 5835 5834 5834 5834 5833 5833 5832 5832 5832 5832 5833 5833 5833 5833 5833 5833 5832 5832
5871 5871 5871 5870 5870 5870 5869 5869 5869 5868 5868 5868 5868 5869 5869 5869 5869 5869 5869 5869 5868 5868 5867 5866 5865 5864 5863 5862 5862 5861 5860 5859 5859 5858 5857 5856 5855 5854 5854 5853 5852 5852 5851 5850 5849 5849 5848 5846 5845 5845 5844 5843 5843 5842 5842 5841 5840 5839 5839 5838 5838 5838 5837 5837 5836 5836 5835 5835 5834 5834 5834 5833 5833 5832 5832 5833 5833 5833 5833 5833 5833 5833 5833 5832 5832
5868 5869 5869 5869 5868 5868 5868 5867 5867 5867 5867 5867 5867 5868 5868 5868 5868 5868 5868 5868 5867 5867 5866 5865 5864 5863 5862 5862 5861 5860 5859 5858 5858 5857 5856 5855 5854 5854 5853 5852 5852 5851 5850 5850 5849 5848 5847 5846 5845 5844 5844 5843 5842 5842 5841 5841 5840 5839 5839 5838 5838 5838 5837 5837 5836 5836 5835 5835 5834 5834 5834 5833 5833 5833 5833 5833 5833 5833 5833 5833 5833 5833 5833 5833 5832
5866 5867 5867 5867 5867 5867 5866 5866 5866 5866 5866 5866 5866 5867 5867 5867 5868 5868 5867 5867 5866 5865 5865 5864 5863 5863 5862 5861 5860 5859 5858 5857 5857 5856 5855 5854 5853 5853 5852 5852 5851 5850 5850 5849 5848 5847 5846 5845 5845 5844 5843 5843 5842 5841 5841 5840 5840 5839 5839 5838 5838 5838 5837 5837 5836 5836 5835 5835 5834 5834 5834 5833 5833 5833 5833 5833 5833 5833 5833 5833 5833 5833 5833 5833 5832
5865 5865 5865 5865 5865 5865 5864 5864 5864 5864 5864 5864 5865 5866 5866 5867 5867 5867 5866 5865 5865 5864 5864 5863 5862 5862 5861 5860 5859 5858 5857 5856 5856 5855 5854 5854 5853 5852 5851 5851 5850 5850 5849 5848 5847 5846 5845 5845 5844 5844 5843 5842 5842 5841 5841 5840 5840 5839 5839 5838 5838 5838 5837 5837 5836 5836 5835 5835 5835 5834 5834 5834 5834 5834 5834 5834 5833 5833 5833 5833 5833 5833 5833 5833 5832
5863 5863 5864 5864 5863 5863 5863 5863 5863 5863 5863 5863 5864 5865 5865 5866 5866 5865 5865 5864 5863 5863 5863 5862 5861 5861 5860 5859 5858 5857 5856 5855 5855 5854 5853 5853 5852 5851 5851 5850 5850 5849 5848 5847 5846 5845 5845 5844 5844 5843 5843 5842 5842 5841 5841 5840 5840 5839 5839 5839 5838 5838 5837 5837 5836 5835 5835 5835 5835 5835 5834 5834 5834 5834 5834 5834 5834 5834 5834 5833 5833 5833 5833 5832 5832
5861 5862 5862 5862 5862 5862 5862 5862 5862 5862 5862 5862 5863 5864 5864 5864 5864 5864 5864 5863 5863 5862 5862 5861 5860 5860 5859 5858 5857 5856 5855 5854 5854 5853 5852 5852 5851 5850 5850 5849 5849 5848 5848 5847 5845 5845 5844 5844 5843 5843 5843 5842 5842 5841 5841 5840 5840 5840 5839 5839 5838 5838 5837 5836 5835 5835 5835 5835 5835 5835 5835 5835 5835 5835 5835 5834 5834 5834 5834 5833 5833 5833 5833 5833 5832
5860 5861 5861 5860 5860 5860 5860 5860 5861 5861 5861 5861 5862 5862 5862 5862 5862 5862 5863 5863 5862 5862 5861 5860 5859 5858 5858 5857 5856 5855 5854 5853 5853 5852 5851 5851 5850 5850 5849 5849 5848 5847 5847 5846 5845 5844 5844 5843 5843 5843 5842 5842 5842 5841 5841 5840 5840 5840 5839 5839 5838 5837 5836 5836 5835 5834 5834 5834 5835 5835 5835 5835 5835 5835 5835 5834 5834 5834 5834 5834 5833 5833 5833 5833 5832
5860 5860 5859 5859 5859 5859 5859 5859 5859 5860 5860 5860 5860 5861 5861 5861 5861 5861 5862 5862 5862 5861 5860 5859 5858 5857 5856 5856 5855 5854 5853 5852 5852 5851 5851 5850 5850 5849 5849 5848 5847 5847 5846 5845 5844 5843 5843 5843 5842 5842 5842 5842 5842 5841 5841 5841 5840 5840 5839 5838 5837 5837 5836 5835 5834 5834 5834 5834 5835 5835 5835 5835 5835 5835 5834 5834 5834 5834 5834 5834 5833 5833 5833 5833 5832
5858 5858 5858 5858 5858 5858 5858 5858 5858 5858 5859 5859 5859 5859 5859 5859 5860 5860 5861 5861 5860 5860 5859 5858 5857 5856 5855 5854 5854 5853 5852 5851 5851 5850 5850 5849 5849 5849 5848 5848 5847 5846 5845 5844 5843 5842 5842 5842 5842 5841 5841 5841 5841 5841 5841 5841 5840 5840 5839 5838 5837 5836 5835 5835 5834 5834 5834 5834 5835 5835 5834 5834 5834 5834 5834 5834 5834 5834 5834 5833 5833 5833 5833 5832 5832
5857 5857 5857 5857 5857 5857 5857 5857 5857 5857 5857 5857 5857 5858 5858 5858 5859 5859 5859 5859 5859 5858 5858 5857 5855 5854 5853 5853 5852 5852 5851 5851 5850 5850 5849 5849 5848 5848 5847 5847 5846 5845 5844 5843 5842 5842 5841 5841 5841 5840 5840 5840 5841 5841 5842 5841 5840 5839 5838 5838 5837 5836 5836 5835 5835 5835 5835 5834 5834 5834 5834 5834 5834 5834 5834 5834 5834 5833 5833 5833 5833 5833 5832 5832 5832
5855 5855 5855 5855 5855 5855 5855 5855 5855 5855 5855 5855 5856 5856 5857 5857 5857 5858 5858 5858 5857 5857 5856 5855 5854 5853 5852 5851 5851 5851 5850 5850 5849 5849 5848 5848 5847 5847 5846 5846 5845 5844 5843 5842 5841 5841 5840 5840 5840 5840 5839 5840 5840 5841 5842 5841 5840 5839 5838 5837 5836 5836 5836 5836 5836 5835 5835 5834 5834 5834 5834 5834 5834 5834 5834 5834 5834 5833 5833 5833 5833 5832 5832 5832 5832
5853 5853 5853 5853 5853 5853 5853 5853 5853 5853 5854 5854 5855 5855 5855 5856 5856 5856 5856 5856 5856 5855 5854 5853 5852 5851 5850 5850 5850 5849 5849 5848 5848 5848 5847 5847 5846 5845 5845 5845 5844 5843 5842 5841 5840 5839 5839 5838 5839 5839 5839 5839 5839 5840 5841 5841 5840 5838 5837 5837 5836 5836 5836 5836 5836 5835 5835 5834 5834 5834 5834 5834 5834 5834 5834 5833 5833 5833 5833 5832 5832 5832 5832 5832 5831
5851 5851 5851 5851 5851 5851 5851 5851 5851 5852 5852 5853 5853 5853 5853 5853 5854 5854 5854 5854 5853 5853 5852 5852 5851 5850 5849 5849 5848 5848 5847 5847 5847 5846 5846 5846 5845 5844 5844 5844 5842 5842 5841 5840 5839 5838 5838 5837 5838 5838 5838 5838 5838 5839 5841 5841 5839 5837 5836 5836 5837 5836 5836 5836 5835 5835 5835 5834 5834 5834 5834 5834 5834 5833 5833 5833 5833 5832 5832 5832 5832 5832 5831 5831 5831
5849 5849 5849 5849 5849 5849 5849 5849 5849 5850 5850 5850 5850 5850 5851 5851 5851 5851 5851 5851 5850 5850 5850 5849 5848 5848 5847 5847 5847 5846 5846 5846 5846 5845 5845 5844 5843 5843 5843 5842 5841 5841 5840 5839 5838 5837 5837 5837 5837 5837 5837 5837 5837 5839 5840 5840 5838 5837 5836 5836 5836 5836 5835 5835 5835 5834 5834 5834 5834 5834 5833 5833 5833 5833 5832 5832 5832 5832 5832 5832 5832 5832 5831 5831 5831
5846 5845 5846 5846 5846 5846 5846 5846 5847 5848 5848 5847 5848 5848 5848 5848 5849 5849 5849 5848 5848 5848 5848 5847 5846 5846 5846 5845 5845 5845 5844 5844 5844 5844 5843 5843 5842 5842 5842 5841 5840 5840 5839 5838 5837 5836 5836 5836 5836 5836 5836 5836 5837 5838 5839 5839 5837 5836 5835 5835 5835 5835 5835 5834 5834 5834 5834 5834 5833 5833 5833 5832 5832 5832 5832 5831 5831 5831 5831 5832 5831 5831 5831 5831 5830
5843 5842 5842 5843 5843 5843 5843 5844 5845 5845 5845 5845 5845 5845 5845 5846 5847 5847 5847 5846 5846 5845 5845 5844 5844 5844 5844 5843 5843 5843 5843 5843 5843 5842 5842 5841 5841 5841 5840 5840 5839 5838 5838 5837 5836 5835 5835 5835 5835 5835 5835 5835 5836 5837 5837 5837 5837 5836 5835 5834 5834 5834 5834 5833 5833 5833 5833 5833 5833 5832 5832 5832 5831 5831 5831 5831 5831 5831 5831 5831 5831 5830 5830 5830 5829
5839 5839 5840 5840 5840 5840 5840 5841 5842 5842 5842 5842 5842 5842 5843 5844 5845 5845 5844 5843 5843 5843 5842 5842 5841 5841 5841 5841 5841 5841 5841 5841 5841 5841 5841 5840 5840 5839 5839 5839 5838 5837 5837 5836 5835 5835 5834 5834 5834 5834 5834 5835 5835 5836 5836 5836 5836 5835 5834 5833 5833 5833 5833 5832 5832 5833 5832 5832 5832 5832 5832 5831 5831 5831 5831 5830 5830 5830 5830 5830 5829 5829 5829 5829 5829
5836 5837 5837 5837 5837 5837 5838 5838 5839 5839 5839 5840 5840 5840 5841 5842 5843 5842 5841 5840 5840 5840 5839 5839 5839 5839 5839 5839 5839 5839 5839 5839 5840 5839 5839 5839 5838 5838 5838 5837 5837 5836 5836 5835 5834 5834 5833 5833 5833 5833 5834 5834 5834 5835 5835 5835 5836 5835 5833 5832 5832 5832 5832 5832 5832 5832 5832 5832 5832 5832 5831 5831 5830 5830 5830 5829 5829 5829 5829 5828 5828 5828 5828 5828 5828
5834 5834 5835 5835 5835 5836 5836 5836 5837 5837 5837 5837 5837 5838 5839 5840 5840 5839 5838 5837 5837 5837 5837 5836 5836 5837 5837 5836 5837 5837 5838 5838 5838 5838 5838 5837 5837 5837 5837 5836 5836 5835 5835 5834 5833 5833 5832 5832 5832 5833 5833 5833 5834 5834 5834 5835 5836 5834 5832 5831 5831 5832 5831 5831 5831 5831 5831 5831 5831 5831 5830 5830 5829 5829 5829 5828 5828 5828 5828 5827 5827 5827 5827 5827 5827
5831 5831 5832 5833 5833 5834 5834 5835 5835 5835 5835 5834 5835 5836 5838 5838 5838 5837 5835 5834 5834 5834 5834 5834 5834 5834 5834 5834 5835 5835 5836 5836 5836 5836 5836 5836 5835 5835 5835 5835 5835 5834 5834 5833 5832 5832 5831 5831 5832 5832 5832 5832 5833 5833 5833 5834 5835 5833 5831 5830 5830 5831 5831 5831 5831 5831 5831 5830 5830 5830 5830 5829 5828 5828 5828 5827 5827 5827 5826 5826 5826 5826 5826 5826 5826
5828 5829 5830 5831 5832 5833 5833 5833 5833 5833 5832 5832 5834 5835 5836 5836 5835 5834 5833 5832 5831 5831 5832 5832 5832 5832 5832 5833 5833 5833 5834 5835 5835 5835 5835 5835 5834 5834 5834 5834 5834 5833 5833 5832 5832 5831 5830 5831 5831 5831 5831 5831 5832 5832 5832 5832 5834 5833 5830 5829 5829 5829 5829 5830 5830 5830 5829 5829 5829 5829 5828 5828 5827 5827 5826 5826 5826 5825 5825 5825 5825 5825 5825 5825 5825
5826 5828 5830 5831 5831 5831 5831 5831 5831 5831 5830 5831 5832 5833 5833 5832 5831 5831 5830 5829 5829 5830 5830 5830 5830 5830 5831 5831 5831 5832 5832 5833 5833 5834 5833 5833 5833 5832 5832 5833 5833 5832 5832 5832 5831 5830 5830 5830 5830 5830 5830 5830 5831 5831 5830 5830 5832 5832 5830 5829 5829 5828 5828 5829 5829 5828 5828 5828 5827 5827 5827 5826 5826 5825 5825 5825 5824 5824 5824 5824 5824 5824 5824 5824 5825
5826 5828 5830 5830 5829 5829 5829 5829 5828 5828 5829 5830 5830 5830 5830 5829 5829 5828 5828 5827 5827 5828 5827 5828 5828 5829 5829 5829 5829 5830 5831 5832 5832 5832 5832 5832 5831 5831 5831 5831 5831 5831 5831 5831 5830 5829 5829 5830 5829 5829 5829 5830 5831 5830 5829 5829 5830 5831 5830 5829 5829 5828 5827 5827 5827 5827 5827 5826 5826 5826 5825 5825 5824 5824 5823 5823 5823 5823 5823 5823 5823 5823 5823 5824 5824
5826 5828 5828 5827 5826 5827 5827 5827 5826 5827 5827 5828 5828 5828 5827 5826 5826 5826 5825 5825 5825 5825 5825 5825 5826 5827 5827 5827 5828 5828 5829 5830 5830 5830 5830 5830 5830 5829 5829 5829 5830 5830 5830 5829 5829 5828 5828 5829 5828 5828 5828 5830 5831 5829 5828 5828 5829 5831 5831 5830 5829 5828 5827 5826 5826 5826 5826 5825 5825 5824 5823 5823 5822 5822 5821 5821 5821 5821 5821 5822 5822 5822 5822 5822 5823
5826 5826 5825 5824 5825 5825 5825 5824 5824 5824 5825 5825 5825 5825 5825 5824 5824 5824 5823 5823 5823 5823 5823 5823 5824 5824 5825 5825 5826 5827 5828 5829 5829 5828 5828 5828 5828 5828 5827 5828 5828 5828 5828 5828 5827 5827 5827 5828 5828 5827 5828 5830 5831 5829 5828 5828 5829 5830 5830 5830 5829 5828 5827 5826 5826 5825 5825 5824 5823 5823 5822 5821 5821 5820 5819 5819 5819 5819 5820 5820 5820 5820 5821 5821 5821
5824 5822 5821 5822 5822 5822 5823 5823 5822 5822 5822 5822 5822 5822 5822 5822 5822 5821 5821 5821 5821 5821 5821 5821 5822 5822 5823 5823 5824 5825 5826 5827 5827 5827 5826 5827 5827 5826 5826 5827 5827 5827 5827 5826 5826 5826 5826 5827 5827 5827 5828 5830 5830 5828 5827 5827 5828 5829 5829 5829 5828 5827 5826 5825 5824 5824 5824 5823 5822 5821 5820 5820 5819 5818 5817 5817 5817 5817 5818 5818 5818 5818 5819 5819 5820
5818 5817 5816 5816 5817 5819 5820 5820 5819 5819 5819 5819 5819 5819 5819 5819 5819 5819 5819 5819 5819 5819 5819 5819 5820 5820 5821 5822 5822 5823 5824 5824 5825 5825 5824 5825 5825 5825 5825 5825 5826 5826 5825 5825 5824 5824 5825 5827 5826 5826 5828 5829 5828 5828 5827 5828 5828 5828 5828 5828 5827 5827 5826 5825 5824 5823 5823 5822 5821 5820 5820 5819 5818 5817 5816 5815 5815 5816 5816 5816 5817 5817 5817 5818 5818
5811 5812 5811 5811 5813 5816 5817 5817 5817 5816 5816 5816 5816 5816 5816 5816 5816 5816 5816 5816 5817 5817 5817 5817 5818 5819 5819 5820 5820 5821 5821 5822 5823 5823 5823 5823 5824 5824 5824 5824 5824 5825 5824 5823 5823 5823 5825 5826 5825 5825 5827 5828 5827 5827 5827 5828 5828 5828 5828 5827 5827 5826 5825 5824 5823 5822 5822 5821 5820 5820 5819 5818 5817 5816 5815 5814 5814 5814 5815 5815 5815 5815 5816 5816 5817
5808 5810 5811 5811 5812 5812 5813 5813 5813 5813 5813 5812 5813 5813 5813 5813 5814 5814 5814 5814 5814 5815 5815 5815 5816 5817 5817 5818 5818 5819 5820 5821 5821 5821 5822 5822 5822 5822 5822 5823 5823 5823 5823 5822 5821 5822 5825 5825 5824 5825 5827 5826 5826 5827 5827 5828 5828 5827 5827 5827 5826 5825 5824 5823 5822 5821 5821 5820 5819 5819 5818 5817 5816 5815 5814 5814 5813 5813 5814 5814 5814 5814 5815 5815 5816
5805 5806 5808 5810 5812 5812 5811 5810 5809 5809 5809 5809 5809 5809 5810 5810 5811 5811 5811 5812 5812 5812 5812 5813 5814 5815 5816 5816 5817 5817 5818 5819 5819 5820 5820 5821 5821 5821 5821 5822 5822 5822 5822 5821 5820 5821 5823 5823 5823 5824 5826 5825 5825 5826 5827 5827 5827 5827 5827 5826 5826 5824 5823 5822 5821 5821 5820 5819 5818 5818 5817 5817 5816 5815 5814 5813 5813 5813 5813 5813 5813 5814 5814 5815 5815
5804 5804 5806 5807 5809 5810 5810 5810 5807 5805 5804 5804 5805 5806 5806 5807 5808 5809 5808 5809 5809 5809 5809 5810 5812 5813 5814 5814 5815 5816 5817 5817 5817 5818 5819 5820 5820 5820 5821 5821 5821 5821 5821 5820 5820 5820 5821 5821 5821 5823 5824 5824 5825 5825 5826 5827 5826 5826 5826 5826 5825 5824 5823 5822 5821 5820 5820 5819 5818 5817 5817 5816 5816 5815 5814 5813 5813 5812 5812 5812 5812 5813 5814 5815 5815
5804 5804 5804 5804 5805 5805 5806 5806 5805 5803 5802 5802 5803 5804 5805 5806 5806 5807 5806 5806 5806 5806 5807 5808 5809 5811 5812 5813 5813 5814 5815 5815 5815 5816 5818 5819 5819 5819 5820 5820 5821 5821 5820 5819 5820 5820 5820 5820 5820 5821 5823 5823 5824 5824 5825 5826 5826 5825 5825 5825 5824 5823 5823 5822 5821 5820 5819 5818 5818 5817 5817 5816 5816 5815 5814 5813 5812 5812 5812 5812 5812 5813 5813 5814 5814
5803 5802 5801 5801 5801 5802 5802 5802 5802 5802 5801 5801 5802 5803 5804 5805 5805 5805 5805 5805 5805 5805 5806 5807 5807 5809 5810 5811 5812 5812 5813 5813 5813 5814 5816 5817 5817 5818 5819 5820 5820 5820 5819 5818 5819 5820 5819 5819 5818 5820 5821 5821 5822 5823 5824 5825 5825 5824 5824 5824 5824 5823 5823 5822 5821 5820 5819 5818 5818 5817 5817 5816 5815 5814 5814 5813 5812 5812 5812 5812 5812 5813 5813 5813 5814
5800 5798 5797 5798 5798 5798 5799 5800 5800 5800 5798 5797 5799 5800 5802 5803 5802 5803 5803 5803 5804 5804 5805 5805 5806 5807 5808 5809 5810 5810 5811 5811 5811 5812 5814 5815 5816 5816 5817 5819 5819 5819 5818 5818 5818 5819 5818 5818 5818 5819 5819 5820 5821 5821 5822 5824 5824 5823 5823 5823 5823 5823 5822 5822 5821 5820 5819 5818 5817 5817 5816 5816 5815 5814 5813 5813 5812 5812 5812 5812 5812 5813 5813 5813 5814
5796 5795 5794 5794 5794 5794 5795 5797 5797 5796 5795 5794 5795 5798 5799 5799 5799 5799 5800 5800 5802 5803 5804 5804 5805 5805 5806 5807 5807 5808 5809 5809 5810 5811 5812 5813 5814 5815 5816 5818 5818 5818 5818 5817 5818 5818 5817 5816 5817 5818 5818 5818 5819 5820 5821 5822 5823 5822 5822 5822 5822 5822 5822 5821 5820 5819 5818 5818 5817 5816 5816 5815 5815 5814 5814 5813 5812 5812 5812 5812 5812 5812 5812 5813 5814
5793 5792 5792 5791 5791 5791 5791 5793 5794 5793 5792 5791 5792 5794 5794 5795 5796 5796 5797 5798 5800 5801 5802 5803 5804 5804 5805 5805 5805 5807 5807 5808 5808 5810 5811 5812 5812 5814 5815 5817 5817 5817 5817 5816 5817 5817 5816 5815 5816 5817 5817 5817 5818 5819 5820 5821 5821 5821 5821 5821 5821 5821 5821 5820 5819 5818 5818 5817 5817 5816 5816 5815 5815 5814 5814 5813 5813 5812 5812 5812 5811 5812 5813 5813 5814
5790 5790 5790 5789 5786 5785 5786 5788 5790 5789 5788 5787 5788 5790 5790 5791 5792 5794 5795 5796 5798 5799 5800 5802 5802 5803 5804 5803 5804 5805 5806 5806 5807 5808 5809 5810 5811 5813 5814 5816 5816 5816 5816 5815 5816 5816 5815 5815 5815 5816 5816 5816 5817 5818 5819 5820 5820 5820 5820 5820 5820 5820 5820 5819 5819 5818 5817 5817 5816 5816 5815 5815 5814 5814 5814 5814 5813 5812 5812 5812 5812 5812 5813 5813 5814
5788 5789 5790 5788 5784 5783 5783 5785 5787 5785 5783 5783 5785 5786 5787 5788 5790 5792 5794 5795 5797 5798 5799 5800 5801 5802 5802 5802 5803 5803 5804 5805 5806 5806 5807 5808 5810 5811 5813 5814 5815 5815 5816 5815 5815 5815 5814 5814 5815 5815 5815 5815 5816 5817 5818 5819 5819 5819 5819 5819 5819 5819 5819 5819 5818 5818 5817 5817 5816 5816 5815 5815 5814 5814 5814 5814 5813 5813 5812 5812 5812 5813 5813 5813 5813
5787 5788 5789 5787 5785 5784 5785 5786 5788 5783 5778 5780 5783 5783 5784 5786 5788 5790 5792 5794 5795 5796 5798 5799 5800 5800 5801 5801 5801 5802 5803 5804 5804 5805 5806 5807 5808 5810 5812 5813 5814 5814 5815 5815 5815 5814 5813 5814 5814 5814 5814 5814 5815 5816 5817 5817 5818 5818 5818 5818 5818 5818 5818 5818 5818 5817 5816 5816 5816 5815 5815 5815 5814 5814 5814 5814 5813 5813 5813 5813 5813 5813 5813 5813 5813
5785 5786 5785 5784 5784 5785 5786 5788 5788 5783 5778 5780 5781 5780 5781 5784 5786 5789 5791 5793 5794 5795 5796 5798 5798 5799 5799 5800 5800 5800 5801 5802 5803 5803 5804 5806 5807 5809 5810 5811 5812 5812 5813 5814 5814 5813 5813 5814 5813 5813 5813 5813 5814 5815 5816 5816 5816 5817 5817 5817 5817 5817 5817 5817 5816 5816 5815 5815 5815 5815 5814 5814 5814 5814 5813 5813 5813 5813 5813 5813 5813 5813 5813 5813 5813
5783 5783 5782 5781 5781 5782 5784 5785 5783 5779 5778 5780 5780 5780 5781 5782 5784 5787 5789 5790 5792 5793 5794 5796 5797 5797 5797 5798 5798 5799 5799 5800 5801 5802 5803 5804 5806 5807 5808 5809 5810 5811 5812 5812 5812 5812 5813 5813 5813 5812 5813 5813 5813 5814 5814 5814 5815 5816 5816 5816 5816 5816 5816 5816 5815 5814 5814 5814 5813 5813 5813 5813 5813 5813 5813 5813 5813 5813 5813 5812 5812 5812 5812 5812 5812
5781 5781 5779 5779 5779 5780 5782 5783 5780 5776 5776 5777 5778 5780 5781 5781 5783 5785 5786 5788 5790 5791 5793 5794 5795 5795 5796 5796 5796 5796 5797 5798 5799 5800 5802 5803 5805 5805 5806 5807 5808 5809 5810 5810 5810 5811 5812 5812 5812 5812 5812 5812 5813 5813 5813 5813 5814 5814 5814 5815 5815 5815 5815 5815 5814 5813 5813 5812 5812 5812 5812 5812 5812 5813 5812 5812 5812 5812 5812 5812 5812 5812 5812 5812 5812
5778 5778 5777 5777 5778 5780 5780 5781 5780 5778 5777 5776 5777 5780 5780 5781 5782 5783 5785 5787 5788 5790 5791 5792 5793 5794 5794 5794 5794 5794 5794 5796 5797 5799 5801 5802 5803 5804 5804 5805 5806 5807 5808 5808 5809 5810 5810 5810 5810 5811 5811 5811 5811 5811 5811 5812 5813 5813 5813 5813 5814 5814 5814 5813 5813 5812 5812 5811 5811 5811 5811 5811 5811 5812 5812 5811 5811 5811 5811 5811 5811 5811 5812 5812 5812
5775 5775 5775 5776 5777 5779 5780 5779 5778 5778 5779 5779 5779 5780 5780 5780 5781 5781 5783 5784 5786 5788 5789 5790 5791 5792 5792 5792 5792 5792 5792 5793 5795 5797 5799 5800 5801 5802 5802 5803 5804 5805 5806 5807 5808 5808 5808 5808 5809 5809 5810 5810 5809 5809 5810 5810 5811 5811 5811 5812 5812 5813 5813 5812 5812 5811 5811 5810 5810 5810 5810 5810 5810 5811 5811 5811 5810 5810 5810 5810 5811 5811 5811 5811 5811
5773 5773 5774 5774 5776 5777 5778 5778 5777 5776 5777 5778 5778 5778 5778 5778 5778 5779 5781 5782 5784 5785 5786 5787 5788 5789 5790 5790 5790 5791 5791 5792 5793 5794 5796 5798 5799 5800 5801 5801 5802 5803 5804 5805 5806 5806 5806 5807 5807 5807 5807 5808 5807 5807 5807 5808 5808 5809 5810 5810 5811 5811 5811 5811 5810 5810 5810 5809 5809 5809 5809 5809 5809 5810 5810 5810 5809 5809 5809 5810 5810 5810 5810 5810 5810
5770 5772 5772 5772 5773 5774 5775 5775 5774 5773 5773 5773 5774 5775 5775 5776 5776 5776 5777 5779 5780 5781 5782 5783 5785 5786 5788 5788 5789 5789 5790 5790 5791 5792 5794 5796 5797 5798 5799 5800 5800 5801 5801 5803 5803 5804 5804 5805 5805 5805 5805 5805 5805 5805 5805 5806 5806 5807 5808 5809 5809 5810 5810 5809 5809 5809 5809 5808 5808 5808 5808 5808 5808 5809 5808 5808 5808 5808 5808 5809 5809 5809 5809 5809 5809
5769 5770 5770 5769 5770 5771 5771 5771 5771 5771 5770 5770 5771 5772 5773 5774 5775 5775 5775 5775 5776 5778 5779 5780 5782 5783 5785 5786 5787 5788 5788 5789 5789 5791 5792 5794 5795 5797 5797 5798 5798 5798 5799 5800 5801 5802 5802 5803 5803 5803 5803 5803 5803 5803 5804 5804 5805 5805 5806 5807 5808 5808 5808 5807 5807 5807 5807 5807 5807 5807 5807 5807 5808 5808 5807 5807 5806 5807 5808 5808 5807 5808 5808 5808 5808